Tracking 35275 objects as of 8-Sep-2026
HD Live streaming from Space Station
objects crossing your sky now

STARLINK-34087

Track STARLINK-34087 now!
10-day predictions
STARLINK-34087 is classified as:


NORAD ID: 64023
Int'l Code: 2025-102B
Launch date: May 16, 2025
Source: United States (US)
Launch site: AIR FORCE WESTERN TEST RANGE (AFWTR)
Your satellite tracking list
Your tracking list is empty




NASA's NSSDC Master Catalog

Two Line Element Set (TLE):
1 64023U 25102B   26251.47441232  .00007581  00000-0  26768-3 0  9991
2 64023  70.0007  12.7087 0003581 273.8551  86.2215 15.29603674 73360
Source of the keplerian elements: AFSPC